This demonstration page uses our WeatherBlox Daily Observations layout. Learn more.

Left ArrowRight Arrow

Hourly Observations for August 26, 2018

Temp ( °F °C ) Dew Point ( °F °C ) Humidity (%) Winds ( mph kmh ) Pressure ( in mb ) Visibility ( mi km ) Precip ( " mm )
12:16 am 00:16 Partly Cloudy 70 21 70 21 100 100 S 3 6 30.06 1018 7 11.26538 N/A
12:37 am 00:37 Mostly Cloudy 72 22 72 22 100 100 S 5 7 30.03 1017 5 8.0467 N/A
12:57 am 00:57 undefined 72 22 72 22 100 100 S 3 6 30.03 1017 N/A N/A
1:16 am 01:16 Partly Cloudy 72 22 72 22 100 100 S 5 7 30.03 1017 5 8.0467 N/A
1:37 am 01:37 Partly Cloudy 72 22 72 22 100 100 S 5 7 30.03 1017 7 11.26538 N/A
1:57 am 01:57 Clear 72 22 72 22 100 100 S 6 9 30.03 1017 7 11.26538 N/A
2:16 am 02:16 Clear 72 22 72 22 100 100 S 5 7 30.03 1017 7 11.26538 N/A
2:37 am 02:37 Clear 72 22 72 22 100 100 S 7 11 30.03 1017 7 11.26538 N/A
2:56 am 02:56 Clear 72 22 72 22 100 100 S 5 7 30.03 1017 5 8.0467 N/A
3:17 am 03:17 Clear 72 22 72 22 100 100 S 6 9 30.03 1017 7 11.26538 N/A
3:37 am 03:37 Clear 72 22 72 22 100 100 S 7 11 30.06 1018 5 8.0467 N/A
3:56 am 03:56 Clear 72 22 72 22 100 100 S 5 7 30.06 1018 5 8.0467 N/A
4:17 am 04:17 Clear 72 22 72 22 100 100 S 6 9 30.06 1018 5 8.0467 N/A
4:36 am 04:36 Partly Cloudy 72 22 72 22 100 100 S 6 9 30.06 1018 5 8.0467 N/A
4:56 am 04:56 Partly Cloudy 72 22 72 22 100 100 SSW 6 9 30.06 1018 7 11.26538 N/A
5:17 am 05:17 Partly Cloudy 72 22 72 22 100 100 SSW 6 9 30.06 1018 7 11.26538 N/A
5:36 am 05:36 Mostly Cloudy 72 22 72 22 100 100 SSW 5 7 30.06 1018 7 11.26538 N/A
5:56 am 05:56 Mostly Cloudy 72 22 72 22 100 100 SSW 5 7 30.06 1018 7 11.26538 N/A
6:17 am 06:17 Partly Cloudy 72 22 72 22 100 100 SSW 5 7 30.06 1018 5 8.0467 N/A
6:36 am 06:36 Partly Cloudy 72 22 72 22 100 100 SW 7 11 30.06 1018 7 11.26538 N/A
6:56 am 06:56 Clear 72 22 72 22 100 100 SSW 6 9 30.06 1018 7 11.26538 N/A
7:17 am 07:17 Sunny 72 22 72 22 100 100 SW 6 9 30.06 1018 7 11.26538 N/A
7:36 am 07:36 Sunny 73 23 73 23 100 100 SW 7 11 30.09 1019 7 11.26538 N/A
7:56 am 07:56 Sunny 73 23 73 23 100 100 SW 8 13 30.09 1019 7 11.26538 N/A
8:17 am 08:17 Sunny 75 24 75 24 100 100 WSW 8 13 30.09 1019 7 11.26538 N/A
8:36 am 08:36 Sunny 75 24 75 24 100 100 WSW 10 17 30.09 1019 7 11.26538 N/A
8:57 am 08:57 Sunny 77 25 77 25 100 100 WSW 8 13 30.09 1019 7 11.26538 N/A
9:16 am 09:16 Sunny 77 25 77 25 100 100 WSW 9 15 30.09 1019 7 11.26538 N/A
9:36 am 09:36 Sunny 79 26 77 25 94 94 WSW 9 15 30.09 1019 7 11.26538 N/A
9:57 am 09:57 Sunny 79 26 77 25 94 94 WSW 9 15 30.09 1019 7 11.26538 N/A
10:16 am 10:16 Partly Cloudy 81 27 79 26 94 94 WSW 9 15 30.09 1019 7 11.26538 N/A
10:36 am 10:36 Mostly Cloudy 79 26 77 25 94 94 WSW 9 15 30.09 1019 7 11.26538 N/A
10:57 am 10:57 Mostly Cloudy 82 28 79 26 89 89 W 13 20 30.09 1019 7 11.26538 N/A
11:16 am 11:16 Mostly Cloudy 81 27 79 26 94 94 WSW 10 17 30.12 1020 7 11.26538 N/A
11:36 am 11:36 Cloudy 82 28 79 26 89 89 WSW 7 11 30.12 1020 7 11.26538 N/A
11:57 am 11:57 Partly Cloudy 82 28 79 26 89 89 WSW 6 9 30.12 1020 7 11.26538 N/A
12:16 pm 12:16 Partly Cloudy 84 29 81 27 89 89 W 6 9 30.09 1019 7 11.26538 N/A
12:37 pm 12:37 Sunny 86 30 81 27 84 84 WSW 9 15 30.09 1019 7 11.26538 N/A
12:56 pm 12:56 Sunny 86 30 81 27 84 84 SW 5 7 30.09 1019 10 16.0934 N/A
1:16 pm 13:16 Sunny 86 30 81 27 84 84 SW 8 13 30.09 1019 7 11.26538 N/A
1:37 pm 13:37 Partly Cloudy 88 31 81 27 79 79 SW 8 13 30.09 1019 10 16.0934 N/A
1:56 pm 13:56 Partly Cloudy 88 31 81 27 79 79 SW 8 13 30.09 1019 10 16.0934 N/A
2:16 pm 14:16 Sunny 88 31 81 27 79 79 SW 10 17 30.09 1019 10 16.0934 N/A
2:37 pm 14:37 Partly Cloudy 88 31 81 27 79 79 SW 6 9 30.09 1019 10 16.0934 N/A
2:56 pm 14:56 Partly Cloudy 88 31 81 27 79 79 WSW 6 9 30.09 1019 10 16.0934 N/A
3:16 pm 15:16 Partly Cloudy 88 31 79 26 75 75 WSW 9 15 30.09 1019 10 16.0934 N/A
3:37 pm 15:37 Partly Cloudy 90 32 81 27 75 75 WSW 9 15 30.03 1017 10 16.0934 N/A
3:56 pm 15:56 Partly Cloudy 88 31 81 27 79 79 SW 7 11 30.06 1018 10 16.0934 N/A
4:16 pm 16:16 Mostly Cloudy 88 31 82 28 84 84 SSW 10 17 30.06 1018 10 16.0934 N/A
4:37 pm 16:37 Partly Cloudy 88 31 81 27 79 79 SSW 12 19 30.06 1018 10 16.0934 N/A
4:56 pm 16:56 Partly Cloudy 88 31 81 27 79 79 SW 9 15 30.06 1018 10 16.0934 N/A
5:17 pm 17:17 Sunny 88 31 79 26 75 75 SW 9 15 30.06 1018 10 16.0934 N/A
5:36 pm 17:36 Sunny 88 31 79 26 75 75 SW 8 13 30.06 1018 10 16.0934 N/A
5:56 pm 17:56 Sunny 88 31 79 26 75 75 SW 12 19 30.06 1018 10 16.0934 N/A
6:17 pm 18:17 Sunny 88 31 77 25 70 70 WSW 12 19 30.06 1018 10 16.0934 N/A
6:36 pm 18:36 Sunny 86 30 77 25 75 75 SW 8 13 30.03 1017 10 16.0934 N/A
6:56 pm 18:56 Sunny 86 30 77 25 75 75 SSW 7 11 30.03 1017 10 16.0934 N/A
7:17 pm 19:17 Partly Cloudy 84 29 79 26 84 84 SSW 7 11 30.03 1017 10 16.0934 N/A
7:36 pm 19:36 Partly Cloudy 84 29 79 26 84 84 SSW 12 19 30.03 1017 10 16.0934 N/A
7:55 pm 19:55 Partly Cloudy 82 28 79 26 89 89 SSW 9 15 30.03 1017 10 16.0934 N/A
8:15 pm 20:15 Sunny 81 27 79 26 94 94 SSW 7 11 30.03 1017 10 16.0934 N/A
8:35 pm 20:35 Clear 79 26 79 26 100 100 S 5 7 30.03 1017 10 16.0934 N/A
8:55 pm 20:55 Clear 79 26 79 26 100 100 S 5 7 30.06 1018 7 11.26538 N/A
9:15 pm 21:15 Clear 77 25 77 25 100 100 S 3 6 30.06 1018 7 11.26538 N/A
9:35 pm 21:35 Clear 77 25 77 25 100 100 S 5 7 30.06 1018 7 11.26538 N/A
9:55 pm 21:55 Clear 77 25 77 25 100 100 S 6 9 30.06 1018 7 11.26538 N/A
10:15 pm 22:15 Clear 77 25 77 25 100 100 S 6 9 30.06 1018 7 11.26538 N/A
10:35 pm 22:35 Clear 77 25 77 25 100 100 S 6 9 30.06 1018 7 11.26538 N/A
10:55 pm 22:55 Clear 77 25 77 25 100 100 S 5 7 30.06 1018 7 11.26538 N/A
11:15 pm 23:15 Clear 75 24 75 24 100 100 S 5 7 30.06 1018 7 11.26538 N/A
11:35 pm 23:35 Clear 75 24 75 24 100 100 SSW 3 6 30.06 1018 7 11.26538 N/A
11:55 pm 23:55 Clear 75 24 75 24 100 100 S 6 9 30.06 1018 7 11.26538 N/A

Powered by AerisWeather